Time,TemperatureF,DewpointF,PressureIn,WindDirection,WindDirectionDegrees,WindSpeedMPH,WindSpeedGustMPH,Humidity,HourlyPrecipIn,Conditions,Clouds,dailyrainin,SolarRadiationWatts/m^2,SoftwareType,DateUTC
2013-03-10 00:02:00,27.0,22.0,-100.00,NNE,31,4.0,15.0,80,0.00,,,0.00,0.000000,,2013-03-10 07:02:00,
2013-03-10 00:11:00,27.0,22.0,-100.00,NNE,31,4.0,15.0,80,0.00,,,0.00,0.000000,,2013-03-10 07:11:00,
2013-03-10 00:32:00,26.0,21.0,-100.00,NNE,18,3.0,10.0,80,0.00,,,0.00,0.000000,,2013-03-10 07:32:00,
2013-03-10 00:42:00,26.0,21.0,-100.00,NNE,18,3.0,10.0,80,0.00,,,0.00,0.000000,,2013-03-10 07:42:00,
2013-03-10 00:52:00,26.0,21.0,-100.00,NNE,18,3.0,10.0,80,0.00,,,0.00,0.000000,,2013-03-10 07:52:00,
2013-03-10 01:01:00,26.0,21.0,-100.00,NNE,18,3.0,10.0,80,0.00,,,0.00,0.000000,,2013-03-10 08:01:00,
2013-03-10 01:11:00,26.0,21.0,-100.00,NNE,18,3.0,10.0,80,0.00,,,0.00,0.000000,,2013-03-10 08:11:00,
2013-03-10 01:42:00,26.0,12.0,-100.00,North,11,8.0,24.0,56,0.00,,,0.00,0.000000,,2013-03-10 08:42:00,
2013-03-10 01:52:00,26.0,12.0,-100.00,North,11,8.0,24.0,56,0.00,,,0.00,0.000000,,2013-03-10 08:52:00,
2013-03-10 03:01:00,26.0,12.0,-100.00,North,11,8.0,24.0,56,0.00,,,0.00,0.000000,,2013-03-10 09:01:00,
2013-03-10 03:11:00,26.0,12.0,-100.00,North,11,8.0,24.0,56,0.00,,,0.00,0.000000,,2013-03-10 09:11:00,
2013-03-10 03:42:00,22.0,17.0,-100.00,NE,49,7.0,13.0,82,0.00,,,0.00,0.000000,,2013-03-10 09:42:00,
2013-03-10 03:52:00,22.0,17.0,-100.00,NE,49,7.0,13.0,82,0.00,,,0.00,0.000000,,2013-03-10 09:52:00,
2013-03-10 04:01:00,22.0,17.0,-100.00,NE,49,7.0,13.0,82,0.00,,,0.00,0.000000,,2013-03-10 10:01:00,
2013-03-10 04:11:00,22.0,17.0,-100.00,NE,49,7.0,13.0,82,0.00,,,0.00,0.000000,,2013-03-10 10:11:00,
2013-03-10 04:42:00,19.0,16.0,-100.00,SW,215,3.0,8.0,86,0.00,,,0.00,0.000000,,2013-03-10 10:42:00,
2013-03-10 04:52:00,19.0,16.0,-100.00,SW,215,3.0,8.0,86,0.00,,,0.00,0.000000,,2013-03-10 10:52:00,
2013-03-10 05:01:00,19.0,16.0,-100.00,SW,215,3.0,8.0,86,0.00,,,0.00,0.000000,,2013-03-10 11:01:00,
2013-03-10 05:12:00,19.0,16.0,-100.00,SW,215,3.0,8.0,86,0.00,,,0.00,0.000000,,2013-03-10 11:12:00,
2013-03-10 07:42:00,14.0,8.0,-100.00,NW,306,1.0,4.0,75,-99.99,,,0.00,1.000000,,2013-03-10 13:42:00,
2013-03-10 07:52:00,14.0,8.0,-100.00,NW,306,1.0,4.0,75,-99.99,,,0.00,1.000000,,2013-03-10 13:52:00,
2013-03-10 08:01:00,14.0,8.0,-100.00,NW,306,1.0,4.0,75,-99.99,,,0.00,1.000000,,2013-03-10 14:01:00,
2013-03-10 08:11:00,14.0,8.0,-100.00,NW,306,1.0,4.0,75,-99.99,,,0.00,1.000000,,2013-03-10 14:11:00,
2013-03-10 08:42:00,21.0,13.0,-100.00,East,80,1.0,4.0,70,0.00,,,0.00,92.000000,,2013-03-10 14:42:00,
2013-03-10 08:52:00,21.0,13.0,-100.00,East,80,1.0,4.0,70,0.00,,,0.00,92.000000,,2013-03-10 14:52:00,
2013-03-10 09:01:00,21.0,13.0,-100.00,East,80,1.0,4.0,70,0.00,,,0.00,92.000000,,2013-03-10 15:01:00,
2013-03-10 09:11:00,21.0,13.0,-100.00,East,80,1.0,4.0,70,0.00,,,0.00,92.000000,,2013-03-10 15:11:00,
2013-03-10 09:42:00,25.0,14.0,-100.00,East,79,6.0,8.0,62,0.00,,,0.00,271.000000,,2013-03-10 15:42:00,
2013-03-10 09:52:00,25.0,14.0,-100.00,East,79,6.0,8.0,62,0.00,,,0.00,271.000000,,2013-03-10 15:52:00,
2013-03-10 10:01:00,25.0,14.0,-100.00,East,79,6.0,8.0,62,0.00,,,0.00,271.000000,,2013-03-10 16:01:00,
2013-03-10 10:12:00,25.0,14.0,-100.00,East,79,6.0,8.0,62,0.00,,,0.00,271.000000,,2013-03-10 16:12:00,
2013-03-10 10:42:00,30.0,12.0,-100.00,NNE,31,5.0,11.0,47,0.00,,,0.00,440.000000,,2013-03-10 16:42:00,
2013-03-10 10:52:00,30.0,12.0,-100.00,NNE,31,5.0,11.0,47,0.00,,,0.00,440.000000,,2013-03-10 16:52:00,
2013-03-10 11:01:00,30.0,12.0,-100.00,NNE,31,5.0,11.0,47,0.00,,,0.00,440.000000,,2013-03-10 17:01:00,
2013-03-10 11:11:00,30.0,12.0,-100.00,NNE,31,5.0,11.0,47,0.00,,,0.00,440.000000,,2013-03-10 17:11:00,
2013-03-10 12:42:00,36.0,6.0,-100.00,ENE,59,8.0,14.0,28,-99.99,,,0.00,679.000000,,2013-03-10 18:42:00,
2013-03-10 12:52:00,36.0,6.0,-100.00,ENE,59,8.0,14.0,28,-99.99,,,0.00,679.000000,,2013-03-10 18:52:00,
2013-03-10 13:01:00,36.0,6.0,-100.00,ENE,59,8.0,14.0,28,-99.99,,,0.00,679.000000,,2013-03-10 19:01:00,
2013-03-10 13:11:00,36.0,6.0,-100.00,ENE,59,8.0,14.0,28,-99.99,,,0.00,679.000000,,2013-03-10 19:11:00,
2013-03-10 13:42:00,40.0,5.0,-100.00,East,88,4.0,9.0,23,0.00,,,0.00,721.000000,,2013-03-10 19:42:00,
2013-03-10 13:53:00,40.0,5.0,-100.00,East,88,4.0,9.0,23,0.00,,,0.00,721.000000,,2013-03-10 19:53:00,
2013-03-10 14:02:00,40.0,5.0,-100.00,East,88,4.0,9.0,23,0.00,,,0.00,721.000000,,2013-03-10 20:02:00,
2013-03-10 14:12:00,40.0,5.0,-100.00,East,88,4.0,9.0,23,0.00,,,0.00,721.000000,,2013-03-10 20:12:00,
2013-03-10 14:33:00,41.0,3.0,-100.00,NE,43,6.0,17.0,20,0.00,,,0.00,702.000000,,2013-03-10 20:33:00,
2013-03-10 14:43:00,41.0,3.0,-100.00,NE,43,6.0,17.0,20,0.00,,,0.00,702.000000,,2013-03-10 20:43:00,
2013-03-10 14:53:00,41.0,3.0,-100.00,NE,43,6.0,17.0,20,0.00,,,0.00,702.000000,,2013-03-10 20:53:00,
2013-03-10 15:02:00,41.0,3.0,-100.00,NE,43,6.0,17.0,20,0.00,,,0.00,702.000000,,2013-03-10 21:02:00,
2013-03-10 15:12:00,41.0,3.0,-100.00,NE,43,6.0,17.0,20,0.00,,,0.00,702.000000,,2013-03-10 21:12:00,
2013-03-10 15:33:00,42.0,3.0,-100.00,ENE,75,5.0,14.0,19,0.00,,,0.00,628.000000,,2013-03-10 21:33:00,
2013-03-10 15:43:00,42.0,3.0,-100.00,ENE,75,5.0,14.0,19,0.00,,,0.00,628.000000,,2013-03-10 21:43:00,
2013-03-10 15:53:00,42.0,3.0,-100.00,ENE,75,5.0,14.0,19,0.00,,,0.00,628.000000,,2013-03-10 21:53:00,
2013-03-10 16:02:00,42.0,3.0,-100.00,ENE,75,5.0,14.0,19,0.00,,,0.00,628.000000,,2013-03-10 22:02:00,
2013-03-10 16:12:00,42.0,3.0,-100.00,ENE,75,5.0,14.0,19,0.00,,,0.00,628.000000,,2013-03-10 22:12:00,
2013-03-10 16:43:00,42.0,2.0,-100.00,ENE,58,6.0,13.0,18,0.00,,,0.00,505.000000,,2013-03-10 22:43:00,
2013-03-10 16:53:00,42.0,2.0,-100.00,ENE,58,6.0,13.0,18,0.00,,,0.00,505.000000,,2013-03-10 22:53:00,
2013-03-10 17:03:00,42.0,2.0,-100.00,ENE,58,6.0,13.0,18,0.00,,,0.00,505.000000,,2013-03-10 23:03:00,
2013-03-10 17:12:00,42.0,2.0,-100.00,ENE,58,6.0,13.0,18,0.00,,,0.00,505.000000,,2013-03-10 23:12:00,
2013-03-10 17:33:00,40.0,2.0,-100.00,ENE,62,7.0,13.0,20,0.00,,,0.00,343.000000,,2013-03-10 23:33:00,
2013-03-10 17:43:00,40.0,2.0,-100.00,ENE,62,7.0,13.0,20,0.00,,,0.00,343.000000,,2013-03-10 23:43:00,
2013-03-10 17:52:00,40.0,2.0,-100.00,ENE,62,7.0,13.0,20,0.00,,,0.00,343.000000,,2013-03-10 23:52:00,
2013-03-10 18:02:00,40.0,2.0,-100.00,ENE,62,7.0,13.0,20,0.00,,,0.00,343.000000,,2013-03-11 00:02:00,
2013-03-10 18:12:00,40.0,2.0,-100.00,ENE,62,7.0,13.0,20,0.00,,,0.00,343.000000,,2013-03-11 00:12:00,
2013-03-10 18:43:00,38.0,3.0,-100.00,ENE,74,5.0,10.0,22,0.00,,,0.00,164.000000,,2013-03-11 00:43:00,
2013-03-10 18:53:00,38.0,3.0,-100.00,ENE,74,5.0,10.0,22,0.00,,,0.00,164.000000,,2013-03-11 00:53:00,
2013-03-10 19:02:00,38.0,3.0,-100.00,ENE,74,5.0,10.0,22,0.00,,,0.00,164.000000,,2013-03-11 01:02:00,
2013-03-10 19:13:00,38.0,3.0,-100.00,ENE,74,5.0,10.0,22,0.00,,,0.00,164.000000,,2013-03-11 01:13:00,
2013-03-10 19:43:00,29.0,1.0,-100.00,WNW,284,2.0,7.0,30,0.00,,,0.00,12.000000,,2013-03-11 01:43:00,
2013-03-10 19:53:00,29.0,1.0,-100.00,WNW,284,2.0,7.0,30,0.00,,,0.00,12.000000,,2013-03-11 01:53:00,
2013-03-10 20:02:00,29.0,1.0,-100.00,WNW,284,2.0,7.0,30,0.00,,,0.00,12.000000,,2013-03-11 02:02:00,
2013-03-10 20:12:00,29.0,1.0,-100.00,WNW,284,2.0,7.0,30,0.00,,,0.00,12.000000,,2013-03-11 02:12:00,
2013-03-10 20:42:00,25.0,2.0,-100.00,NW,305,3.0,6.0,37,0.00,,,0.00,0.000000,,2013-03-11 02:42:00,
2013-03-10 20:53:00,25.0,2.0,-100.00,NW,305,3.0,6.0,37,0.00,,,0.00,0.000000,,2013-03-11 02:53:00,
2013-03-10 21:02:00,25.0,2.0,-100.00,NW,305,3.0,6.0,37,0.00,,,0.00,0.000000,,2013-03-11 03:02:00,
2013-03-10 21:12:00,25.0,2.0,-100.00,NW,305,3.0,6.0,37,0.00,,,0.00,0.000000,,2013-03-11 03:12:00,
2013-03-10 21:32:00,25.0,3.0,-100.00,NW,309,2.0,6.0,38,0.00,,,0.00,0.000000,,2013-03-11 03:32:00,
2013-03-10 21:43:00,25.0,3.0,-100.00,NW,309,2.0,6.0,38,0.00,,,0.00,0.000000,,2013-03-11 03:43:00,
2013-03-10 21:53:00,25.0,3.0,-100.00,NW,309,2.0,6.0,38,0.00,,,0.00,0.000000,,2013-03-11 03:53:00,
2013-03-10 22:02:00,25.0,3.0,-100.00,NW,309,2.0,6.0,38,0.00,,,0.00,0.000000,,2013-03-11 04:02:00,
2013-03-10 22:12:00,25.0,3.0,-100.00,NW,309,2.0,6.0,38,0.00,,,0.00,0.000000,,2013-03-11 04:12:00,
2013-03-10 22:33:00,27.0,4.0,-100.00,NW,306,3.0,5.0,36,0.00,,,0.00,0.000000,,2013-03-11 04:33:00,
2013-03-10 22:43:00,27.0,4.0,-100.00,NW,306,3.0,5.0,36,0.00,,,0.00,0.000000,,2013-03-11 04:43:00,
2013-03-10 22:53:00,27.0,4.0,-100.00,NW,306,3.0,5.0,36,0.00,,,0.00,0.000000,,2013-03-11 04:53:00,
2013-03-10 23:03:00,27.0,4.0,-100.00,NW,306,3.0,5.0,36,0.00,,,0.00,0.000000,,2013-03-11 05:03:00,
2013-03-10 23:12:00,27.0,4.0,-100.00,NW,306,3.0,5.0,36,0.00,,,0.00,0.000000,,2013-03-11 05:12:00,
2013-03-10 23:32:00,26.0,4.0,-100.00,WNW,296,2.0,5.0,39,0.00,,,0.00,0.000000,,2013-03-11 05:32:00,
2013-03-10 23:43:00,26.0,4.0,-100.00,WNW,296,2.0,5.0,39,0.00,,,0.00,0.000000,,2013-03-11 05:43:00,
2013-03-10 23:52:00,26.0,4.0,-100.00,WNW,296,2.0,5.0,39,0.00,,,0.00,0.000000,,2013-03-11 05:52:00,